This demonstration page uses our WeatherBlox Daily Observations layout. Learn more.

Left ArrowRight Arrow

Hourly Observations for July 7, 2020

Temp ( °F °C ) Dew Point ( °F °C ) Humidity (%) Winds ( mph kmh ) Pressure ( in mb ) Visibility ( mi km ) Precip ( " mm )
12:47 am 00:47 Partly Cloudy with Light Rain 74 23.3 65 18.3 74 74 S 25 41 29.83 1010 10 16.0934 0.001 0.001
12:54 am 00:54 Partly Cloudy with Light Rain 76 24.4 64 17.8 67 67 ESE 9 15 29.87 1012 10 16.0934 0.001 0.001
1:54 am 01:54 Clear 75 23.9 65 18.3 71 71 Calm 29.91 1013 10 16.0934 0.001 0.001
2:54 am 02:54 Clear 71 21.7 65 18.3 81 81 NNE 6 9 29.94 1014 10 16.0934 0 0
3:54 am 03:54 Clear 70 21.1 65 18.3 84 84 ENE 5 7 29.96 1015 10 16.0934 0 0
4:54 am 04:54 Clear 70 21.1 66 18.9 87 87 NNE 3 6 29.97 1015 10 16.0934 0 0
5:54 am 05:54 Partly Cloudy 71 21.7 66 18.9 84 84 N 9 15 30 1016 10 16.0934 0 0
6:54 am 06:54 Mostly Cloudy 73 22.8 67 19.4 81 81 Calm 30 1016 10 16.0934 0 0
7:54 am 07:54 Sunny 76 24.4 67 19.4 74 74 Calm 30.01 1016 9 14.48406 0 0
8:54 am 08:54 Sunny 79 26.1 67 19.4 67 67 SE 6 9 30 1016 10 16.0934 0 0
9:54 am 09:54 Sunny 82 27.8 69 20.6 65 65 S 7 11 29.99 1016 10 16.0934 0 0
10:54 am 10:54 Sunny 85 29.4 70 21.1 61 61 SSE 6 9 29.98 1015 10 16.0934 0 0
11:54 am 11:54 Sunny 87 30.6 70 21.1 57 57 S 10 17 29.95 1014 10 16.0934 0 0
12:54 pm 12:54 Sunny 89 31.7 70 21.1 53 53 S 16 26 29.93 1013 10 16.0934 0 0
1:54 pm 13:54 Sunny 90 32.2 67 19.4 47 47 SSW 14 22 29.92 1013 10 16.0934 0 0
2:54 pm 14:54 Sunny 91 32.8 68 20 47 47 SW 13 20 29.91 1013 10 16.0934 0 0
3:54 pm 15:54 Sunny 91 32.8 68 20 47 47 SSW 10 17 29.88 1012 10 16.0934 0 0
4:54 pm 16:54 Sunny 91 32.8 70 21.1 50 50 SSW 12 19 29.86 1011 10 16.0934 0 0
5:54 pm 17:54 Sunny 90 32.2 69 20.6 50 50 S 10 17 29.85 1011 10 16.0934 0 0
6:54 pm 18:54 Sunny 89 31.7 70 21.1 53 53 S 13 20 29.83 1010 10 16.0934 0 0
7:54 pm 19:54 Sunny 87 30.6 71 21.7 59 59 S 9 15 29.83 1010 10 16.0934 0 0
8:54 pm 20:54 Sunny 84 28.9 70 21.1 63 63 SSE 9 15 29.83 1010 10 16.0934 0 0
9:54 pm 21:54 Clear 82 27.8 70 21.1 67 67 SSE 8 13 29.84 1010 10 16.0934 0 0
10:54 pm 22:54 Clear 80 26.7 70 21.1 71 71 S 7 11 29.86 1011 10 16.0934 0 0
11:54 pm 23:54 Clear 79 26.1 70 21.1 74 74 SSE 9 15 29.87 1011 10 16.0934 0 0

Powered by AerisWeather